Dati Storici

Data ora Umidita' aria (%) Temperatura aria (°C) Rad globale (W/m²) Gonioanemometro (°) Tacoanemometro (m/s) Pioggia (mm)
06-06-2020 04:10 97.8 % 18.381 -76.269 0.419 0 0
06-06-2020 04:00 97.8 % 18.332 -80.154 0.316 0 0
06-06-2020 03:50 97.8 % 18.271 -81.198 0.733 0 0
06-06-2020 03:40 97.8 % 18.267 -78.229 0.394 0 0
06-06-2020 03:30 97.8 % 18.23 -80.277 0.677 0 0
06-06-2020 03:20 97.8 % 18.233 -81.603 0.583 0 0
06-06-2020 03:10 97.7 % 18.364 -79.991 0.526 0 0
06-06-2020 03:00 97.7 % 18.436 -81.986 0.908 0 0
06-06-2020 02:50 97.8 % 18.493 -79.665 0.112 0 0
06-06-2020 02:40 97.8 % 18.352 -82.256 0.342 0 0
06-06-2020 02:30 97.7 % 18.227 -78.947 0.32 0 0
06-06-2020 02:20 97.7 % 18.24 -80.514 0.357 0 0
06-06-2020 02:10 97.7 % 18.303 -81.542 0.302 0 0
06-06-2020 02:00 97.8 % 18.348 -78.34 0.764 0 0
06-06-2020 01:50 97.7 % 18.319 -79.612 0.508 0 0
06-06-2020 01:40 97.7 % 18.405 -82.47 0.963 0 0
06-06-2020 01:30 97.7 % 18.423 -75.68 0.799 0 0
06-06-2020 01:20 97.7 % 18.566 -77.514 0.831 0 0
06-06-2020 01:10 97.7 % 18.689 -76.764 1.419 0 0
06-06-2020 01:00 97.7 % 18.809 -78.357 0.87 0 0

I dati sono presentati in modo automatico a scopo informativo. In seguito a verifica i dati possono subire modifiche o essere invalidati e non riportati negli archivi definitivi.